星链-6237 (STARLINK-6237 )

导读 | 星芒AI

STARLINK-6237 是 SpaceX Starlink 卫星互联网项目中的一颗低轨卫星。它属于 Starlink 群体的第 22 批次发射任务,旨在为全球用户提供高速互联网服务。该卫星运行在约 550 公里的轨道高度,采用先进的推进和通信技术,支持宽带数据传输。Starlink 项目致力于构建覆盖全球的卫星网络,尤其服务于偏远和网络基础设施薄弱的地区。STARLINK-6237 的部署有助于提升网络覆盖范围和连接质量。

基本信息
目录编号:
57055
目录名称:
STARLINK-6237
国际标识:
2023-088H
轨道中心:
EARTH
卫星名称:
星链-6237
卫星全名:
星链-6237 (STARLINK-6237 )
卫星状态:
在轨 (已飞行865 天)
发射日期:
2023-06-22 UTC
国别 :
美国 (US)
星等 :
--
轨道信息
数据来源 国际轨道数据
星历时间: 2025-11-02T10:10:07+0800
1天前
查看轨道信息
半长轴: 6937.219km
偏心率: 0.0001215
轨道倾角: 43.004°
近地点辐角 270.505°
升交点赤经 80.972°
平近点角 89.566°
近地点: 558.241km
远地点: 559.927km
周期: 95.838分钟
每日圈数: 15.025355
详细信息
固有亮度:
5
最大亮度:
2.4
卫星平台:
Starlink v1.5
覆盖范围:
全球
运营商:
太空探索技术公司
运营商所在国:
美国
制造商(研发单位):
太空探索技术公司
制造商所在国:
美国
使用方式:
暂无
卫星简介
星链(Starlink)计划是由太空探索技术公司(SpaceX)提出的一个巨型低轨卫星互联网星座项目,计划在2019年至2024年间在太空搭建由约1.2万颗卫星组成的“星链”网络,其中1584颗将部署在地球上空550千米处的近地轨道,并从2020年开始工作。该卫星仍在工作。
2D轨道图
3D轨道图
轨道高度分析图
轨道倾角分析图
轨道综合分析图
查看轨道综合分析图